Location: Quesnel
(52.9830°N, 122.4830°W)
Time: 23:40:03
(UTC-08:00)

ISS - All Passes

Search period start: 27 February 2017 00:00
Search period end: 09 March 2017 00:00
Orbit: 399 x 408 km, 51.6° (Epoch: 28 February)

Date Brightness Start Highest point End Pass type
(mag) Time Alt. Az. Time Alt. Az. Time Alt. Az.
27 Feb - 07:57:32 10° SSW 08:00:12 23° SSE 08:02:52 10° E daylight
27 Feb - 09:33:00 10° WSW 09:36:17 59° SSE 09:39:32 10° E daylight
27 Feb - 11:09:21 10° W 11:12:38 65° S 11:15:55 10° ESE daylight
27 Feb - 12:45:54 10° W 12:48:48 28° SSW 12:51:41 10° SSE daylight
28 Feb - 07:05:48 10° S 07:07:52 16° SE 07:09:56 10° ESE daylight
28 Feb - 08:40:35 10° WSW 08:43:47 47° SSE 08:46:59 10° E daylight
28 Feb - 10:16:49 10° W 10:20:06 71° S 10:23:24 10° E daylight
28 Feb - 11:53:15 10° W 11:56:22 39° SSW 11:59:28 10° SE daylight
28 Feb - 13:30:58 10° WSW 13:32:10 12° SW 13:33:22 10° SSW daylight
01 Mar - 06:15:31 10° SE 06:15:34 10° SE 06:15:38 10° SE visible
01 Mar - 07:48:15 10° SW 07:51:19 35° SSE 07:54:23 10° E daylight
01 Mar - 09:24:15 10° W 09:27:33 70° S 09:30:51 10° E daylight
01 Mar - 11:00:39 10° W 11:03:53 51° SSW 11:07:06 10° ESE daylight
01 Mar - 12:37:33 10° W 12:39:51 18° SW 12:42:09 10° S daylight
02 Mar - 06:56:05 10° SSW 06:58:53 25° SSE 07:01:41 10° E daylight
02 Mar - 08:31:44 10° WSW 08:35:00 63° S 08:38:17 10° E daylight
02 Mar - 10:08:04 10° W 10:11:21 62° S 10:14:38 10° ESE daylight
02 Mar - 11:44:41 10° W 11:47:29 25° SSW 11:50:15 10° SSE daylight
03 Mar - 06:04:11 10° S 06:06:29 18° SE 06:08:47 10° E visible
03 Mar - 07:39:14 10° WSW 07:42:28 51° SSE 07:45:41 10° E daylight
03 Mar - 09:15:29 10° W 09:18:47 70° S 09:22:05 10° E daylight
03 Mar - 10:51:58 10° W 10:55:02 35° SSW 10:58:05 10° SE daylight
04 Mar - 05:12:55 10° SSE 05:14:09 12° SE 05:15:22 10° ESE visible
04 Mar - 06:46:50 10° SW 06:49:56 39° SSE 06:53:03 10° E daylight
04 Mar - 08:22:55 10° W 08:26:13 71° S 08:29:30 10° E daylight
04 Mar - 09:59:19 10° W 10:02:31 47° SSW 10:05:43 10° ESE daylight
04 Mar - 11:36:23 10° WSW 11:38:26 16° SW 11:40:29 10° S daylight
05 Mar - 05:54:33 10° SSW 05:57:27 28° SSE 06:00:21 10° E visible
05 Mar - 07:30:20 10° WSW 07:33:37 65° S 07:36:54 10° E daylight
05 Mar - 09:06:42 10° W 09:09:58 59° SSW 09:13:13 10° ESE daylight
05 Mar - 10:43:22 10° W 10:46:02 23° SSW 10:48:42 10° SSE daylight
06 Mar - 05:02:31 10° SSW 05:05:01 20° SSE 05:07:29 10° E visible
06 Mar - 06:37:47 10° WSW 06:41:01 55° SSE 06:44:16 10° E daylight
06 Mar - 08:14:04 10° W 08:17:22 68° S 08:20:39 10° ESE daylight
06 Mar - 09:50:34 10° W 09:53:34 32° SSW 09:56:33 10° SE daylight
07 Mar - 04:10:55 10° S 04:12:36 13° SE 04:14:17 10° ESE visible
07 Mar - 05:45:18 10° SW 05:48:27 43° SSE 05:51:37 10° E visible
07 Mar - 07:21:27 10° W 07:24:44 71° S 07:28:02 10° E daylight
07 Mar - 08:57:52 10° W 09:01:02 43° SSW 09:04:11 10° SE daylight
07 Mar - 10:35:09 10° WSW 10:36:54 14° SW 10:38:38 10° S daylight
08 Mar - 04:52:57 10° SW 04:55:55 31° SSE 04:58:53 10° E visible
08 Mar - 06:28:49 10° WSW 06:32:06 68° S 06:35:24 10° E daylight
08 Mar - 08:05:12 10° W 08:08:26 56° SSW 08:11:41 10° ESE daylight
08 Mar - 09:41:57 10° W 09:44:28 20° SSW 09:46:59 10° SSE daylight
